ORBCOMM FM109

Last updated on Fri Jun 19 2026 17:09:43 GMT+0000 (Coordinated Universal Time)

1 40086U 14040A 26170.01595539 .00000301 00000+0 99899-4 0 9991 2 40086 47.0031 82.8397 0001935 251.0787 108.9889 14.58846512634617
UTC large
Height (km)
Speed (km/s)
/
Latitude / Longitude
Inclination (degrees)
Orbital Period (minutes)
Azimuth
Elevation
Range (km)
Doppler Factor

Next 0 passes for location: London (51.5072 / 0.1276)

No passes found over London.
ORBCOMM FM109